Wind_Speed
32 33 31 29 30 31 28 24 20 20 18 18 19 22 24 22 20 20 19 19 18 21 25 28 29 30 30 33 36 41 50 30 46 36 43 35 30 31 30 31 24 29 28 25 21
40 35 34 32 32 32 28 24 20 18 16 17 20 22 22 20 19 20 20 21 20 19 23 26 29 30 30 34 36 37 39 35 40 24 34 35 32 34 36 34 27 30 27 26 24
42 39 35 33 33 33 28 24 18 17 15 17 20 22 20 18 17 21 16 13 17 19 20 25 28 26 27 28 38 36 41 25 39 25 27 34 34 33 35 36 29 29 31 24 15
40 39 36 34 34 34 29 24 17 16 15 18 20 19 16 15 12 9 15 17 17 19 21 23 25 29 29 31 35 35 39 37 28 35 28 31 33 31 35 38 38 26 22 23 22
35 39 38 36 34 34 29 23 17 16 16 18 18 15 14 17 16 16 16 14 15 15 17 19 27 28 31 30 31 38 34 43 21 44 26 31 36 34 33 33 33 31 28 25 25
35 40 39 38 35 34 27 21 17 16 17 17 14 12 16 15 15 13 11 11 10 13 15 17 23 24 31 29 32 35 35 31 43 22 30 34 38 36 32 29 29 30 29 27 25
32 37 39 40 37 33 25 19 16 16 15 14 11 14 14 13 12 10 8 8 10 12 14 7 20 25 29 30 28 31 24 27 43 43 12 31 36 35 31 29 25 24 27 25 25
31 32 37 39 37 32 23 17 17 14 12 9 13 11 11 10 7 7 7 8 9 8 9 9 18 23 29 24 24 38 16 29 30 41 24 31 27 29 30 28 27 24 22 22 26
33 33 38 37 36 30 20 16 15 13 7 10 9 12 7 10 10 9 10 11 8 6 6 6 6 25 32 22 22 33 19 31 19 30 29 14 28 26 29 29 27 25 22 23 24
28 33 37 35 35 27 17 15 12 8 5 13 8 8 10 12 11 9 11 10 6 6 6 6 8 18 28 30 21 28 17 22 23 16 25 30 26 31 28 30 29 28 25 23 23
31 31 35 32 32 22 14 12 9 5 8 9 9 8 11 11 10 7 8 8 5 5 7 4 13 17 9 34 18 32 22 27 21 15 10 14 31 35 33 30 30 28 26 22 20
31 32 30 30 29 18 11 10 4 3 7 14 14 14 12 9 9 6 6 5 5 6 2 6 8 12 25 14 29 24 21 30 12 7 9 8 9 28 31 33 30 26 26 22 21
33 27 24 27 25 14 9 6 0 7 12 19 14 13 8 5 6 5 2 1 3 3 6 6 3 10 24 18 26 24 26 25 24 15 9 7 16 10 23 29 29 30 31 29 20
37 24 24 26 19 11 7 2 4 7 5 12 13 12 10 4 9 7 9 9 8 12 15 7 5 14 17 16 26 27 23 24 24 16 6 6 1 13 12 23 30 34 35 31 25
35 24 21 23 15 9 5 3 6 6 4 2 6 10 15 11 8 11 15 10 14 7 10 10 9 9 16 24 28 24 21 15 16 17 6 7 2 3 8 23 27 31 29 27 24
31 26 25 20 11 9 7 8 8 3 1 1 3 10 15 13 15 19 18 16 13 19 19 19 14 14 24 19 24 26 25 19 14 8 4 7 5 5 18 19 16 23 24 21 21
30 27 26 18 9 10 11 12 4 2 14 8 8 13 14 13 16 21 25 21 12 14 20 18 16 16 19 23 19 25 28 5 3 2 3 11 9 14 5 14 12 17 22 20 22
31 24 24 14 11 13 13 12 4 13 14 13 11 13 11 15 18 17 19 21 17 20 10 9 8 8 10 17 17 21 7 6 4 4 2 15 8 8 6 10 8 11 14 17 20
25 25 20 13 14 17 17 9 4 16 18 17 10 6 7 11 11 10 20 19 14 5 6 6 7 15 9 11 18 9 9 4 6 6 4 7 7 9 8 10 13 11 9 7 9
31 26 18 15 18 21 19 8 13 17 20 16 6 5 5 7 5 4 7 9 10 9 9 15 11 15 15 8 16 15 8 1 5 3 1 2 5 7 11 14 12 11 11 12 12
30 19 19 19 21 23 18 10 21 21 19 12 7 9 11 8 10 7 5 7 8 10 10 8 7 10 14 6 12 9 3 4 5 3 3 2 3 2 7 8 10 9 11 12 11
31 22 21 22 26 25 19 15 21 23 21 12 13 13 8 9 8 5 5 3 5 5 7 7 10 10 7 9 8 10 5 4 2 3 4 3 1 3 8 8 7 5 6 7 7
26 24 22 26 25 26 21 21 23 22 18 17 15 10 10 7 4 7 5 6 7 5 3 4 7 8 3 4 9 8 8 5 2 2 2 3 1 4 5 3 6 7 8 7 10
25 23 24 28 25 26 26 24 24 20 19 18 17 12 10 6 4 6 5 4 7 6 5 5 7 4 6 5 5 4 8 9 8 4 4 8 8 3 4 6 8 11 14 16 17
26 20 19 33 31 27 28 26 26 22 18 17 16 11 11 8 5 5 5 6 5 5 6 4 4 5 5 4 3 1 1 8 14 15 11 17 20 15 13 15 17 21 22 23 23
26 12 18 11 26 29 29 27 26 24 22 21 16 15 11 6 3 9 5 5 3 6 6 4 4 3 2 1 4 7 7 8 9 13 21 23 25 19 20 24 20 27 32 34 34
21 12 16 18 28 31 28 27 25 22 21 18 17 16 12 10 8 8 6 4 7 6 4 3 3 2 1 1 4 6 2 2 8 11 12 17 17 19 21 23 24 25 28 30 31
Wind_Direction
335 336 332 331 329 328 325 316 309 297 286 277 275 279 285 289 290 288 283 281 266 253 244 244 244 237 235 224 215 217 223 217 214 215 216 207 212 207 206 217 224 223 227 236 237
336 334 330 330 330 327 326 315 308 296 287 280 279 284 288 292 291 289 292 286 277 254 253 237 235 237 234 225 218 213 228 226 217 209 219 210 209 204 205 208 218 211 216 226 238
329 332 327 329 329 326 323 314 307 296 287 284 285 288 291 293 292 293 289 278 270 269 260 247 231 228 230 224 217 218 225 205 234 205 211 215 214 203 212 214 221 214 212 212 215
323 329 327 329 328 325 323 314 307 295 289 287 287 288 289 287 290 276 275 280 277 276 273 256 238 230 221 222 214 222 223 217 214 203 205 205 212 203 211 213 217 219 218 212 197
315 324 328 328 326 325 320 314 305 296 295 294 290 288 285 289 282 281 281 276 283 276 277 264 237 225 211 221 215 218 219 221 203 211 206 201 202 206 208 209 204 207 206 208 213
318 321 327 327 324 323 318 313 306 300 301 300 295 288 290 286 289 290 292 293 271 276 277 249 229 227 218 218 212 214 211 213 207 189 201 190 194 198 197 193 197 204 204 203 199
307 315 322 326 322 321 318 314 307 307 306 305 300 299 290 287 289 298 297 286 282 282 294 242 208 207 210 218 211 200 214 219 229 221 196 179 181 186 189 184 179 184 199 199 200
291 307 317 322 319 319 319 314 309 315 310 312 311 302 299 296 292 285 293 311 306 295 289 317 209 204 207 211 211 203 221 215 224 213 231 174 168 180 183 183 184 186 193 198 201
297 292 315 320 317 317 320 312 316 320 323 329 321 318 313 314 303 268 282 296 298 279 302 276 223 211 213 195 196 188 207 210 226 243 221 176 183 177 178 182 188 193 198 207 210
291 293 299 317 316 315 319 311 325 331 8 342 337 341 318 315 316 281 271 287 289 289 275 261 184 202 217 192 185 184 193 194 218 210 214 228 180 186 184 187 191 198 197 202 213
280 282 295 311 314 315 315 310 328 10 4 2 2 351 345 329 324 268 264 293 281 279 274 229 202 198 238 178 179 184 181 176 166 184 191 225 225 181 194 189 190 199 202 203 212
288 280 293 306 313 309 311 308 340 61 13 33 19 6 341 336 347 319 297 282 275 273 254 175 204 222 168 174 166 186 184 191 192 209 268 258 244 175 192 196 188 193 197 194 201
274 273 297 304 309 304 301 302 341 134 46 30 18 19 25 14 24 338 357 254 319 307 135 143 170 167 179 165 164 176 179 167 171 146 144 170 270 190 208 206 199 210 224 213 204
271 271 293 299 302 298 280 301 151 134 76 31 12 22 27 36 37 6 10 9 51 115 106 103 118 168 170 138 169 167 175 166 163 163 97 177 136 210 186 207 214 217 223 217 205
261 270 281 294 291 275 248 167 144 148 60 357 24 59 60 61 53 30 25 55 79 101 103 111 130 172 118 140 158 151 168 167 159 173 143 204 296 221 207 206 209 210 215 215 213
249 262 273 290 275 249 200 156 151 132 269 247 152 94 68 60 51 39 53 98 112 104 101 108 104 88 102 116 147 142 154 152 165 173 243 184 235 226 221 224 241 234 215 222 223
250 247 265 276 254 220 190 157 165 193 146 159 136 101 81 63 61 62 62 69 83 102 93 124 92 108 110 120 139 153 142 98 69 117 233 184 209 249 209 222 246 224 226 234 234
235 244 255 257 225 205 188 180 208 161 177 173 150 101 86 76 79 68 73 77 88 112 92 67 77 97 130 139 147 155 147 94 132 173 163 175 227 267 231 215 180 178 195 212 221
230 234 252 231 208 195 183 206 183 151 178 166 145 109 98 88 98 66 66 72 86 68 87 91 75 92 133 145 157 142 114 100 107 90 98 186 258 255 201 185 213 217 208 216 225
234 232 240 213 198 193 188 204 173 162 163 162 143 142 121 99 83 66 68 65 69 68 92 108 96 106 107 120 123 118 143 183 96 130 184 313 290 250 206 205 210 230 246 255 265
225 206 217 201 193 193 194 194 175 173 173 177 164 128 121 95 94 86 89 96 86 87 89 119 130 136 132 109 136 106 110 64 87 68 138 130 272 236 214 212 222 250 258 259 265
208 203 204 198 189 194 200 194 176 175 179 169 154 139 130 114 88 87 105 119 122 107 80 72 125 123 132 149 161 192 176 159 135 151 102 122 32 359 196 175 199 225 207 178 171
201 205 197 196 193 191 188 178 176 173 167 163 160 157 142 126 104 116 108 109 137 148 82 66 126 115 120 196 207 204 208 214 170 124 124 104 66 106 116 187 204 187 195 233 248
206 190 193 196 192 191 188 180 178 175 170 164 167 162 158 137 115 142 133 122 139 150 130 100 114 120 152 119 119 182 216 229 239 260 234 227 251 278 304 279 252 237 247 255 264
193 200 211 198 191 189 185 181 180 175 175 172 177 185 177 164 154 151 155 149 157 156 153 115 124 111 111 119 143 140 192 235 242 250 260 270 272 272 276 275 264 260 259 264 274
191 199 201 195 188 185 184 185 185 180 182 186 182 181 180 184 149 144 143 157 160 170 160 144 133 129 124 347 254 261 267 263 258 253 258 267 274 285 272 275 270 259 258 262 269
189 206 181 185 181 187 188 183 185 185 179 183 182 176 164 153 135 125 117 109 140 150 156 166 146 125 181 333 304 284 137 283 271 274 272 275 288 281 275 275 272 265 266 270 271
Height
3101 3096 3092 3087 3083 3078 3073 3068 3062 3060 3058 3058 3057 3056 3053 3051 3050 3049 3048 3049 3050 3049 3050 3052 3053 3055 3058 3062 3065 3069 3071 3066 3072 3077 3086 3095 3098 3101 3105 3107 3108 3110 3114 3120 3121
3097 3093 3088 3083 3078 3073 3068 3063 3058 3056 3054 3054 3053 3051 3049 3047 3046 3044 3044 3042 3041 3042 3042 3045 3046 3048 3050 3054 3059 3062 3062 3066 3073 3077 3084 3091 3094 3099 3102 3104 3107 3108 3113 3115 3118
3092 3089 3084 3079 3074 3069 3064 3059 3054 3052 3050 3049 3048 3046 3045 3043 3042 3040 3038 3037 3036 3036 3037 3038 3040 3041 3043 3048 3052 3055 3055 3063 3070 3077 3083 3088 3090 3093 3096 3100 3105 3107 3111 3114 3115
3087 3084 3080 3075 3070 3065 3059 3055 3050 3049 3046 3045 3044 3042 3041 3040 3041 3036 3035 3034 3032 3032 3032 3032 3034 3034 3037 3040 3046 3050 3052 3062 3068 3072 3078 3084 3087 3090 3093 3098 3104 3108 3113 3115 3120
3084 3080 3076 3071 3066 3060 3055 3051 3047 3045 3042 3042 3040 3039 3038 3036 3034 3032 3031 3030 3029 3027 3026 3025 3026 3029 3031 3036 3043 3045 3052 3057 3060 3068 3074 3080 3083 3086 3090 3095 3100 3105 3111 3113 3116
3080 3076 3072 3068 3062 3056 3052 3048 3044 3042 3039 3038 3037 3036 3034 3032 3029 3028 3027 3026 3025 3023 3021 3020 3020 3025 3029 3031 3037 3042 3050 3055 3060 3061 3068 3075 3078 3082 3088 3092 3096 3102 3106 3110 3114
3076 3072 3068 3065 3059 3053 3048 3045 3042 3039 3036 3035 3034 3033 3030 3029 3026 3025 3025 3024 3022 3020 3016 3015 3016 3020 3025 3029 3035 3042 3048 3052 3051 3055 3061 3070 3075 3077 3084 3089 3093 3098 3103 3107 3112
3070 3068 3064 3061 3056 3050 3045 3042 3040 3036 3034 3034 3032 3030 3026 3024 3024 3023 3022 3021 3019 3017 3016 3015 3015 3018 3021 3027 3032 3040 3045 3048 3050 3052 3056 3061 3070 3075 3081 3086 3091 3095 3100 3104 3110
3065 3063 3061 3057 3052 3047 3042 3040 3038 3034 3034 3033 3030 3027 3024 3023 3021 3020 3019 3018 3017 3016 3014 3012 3013 3016 3019 3023 3030 3037 3041 3042 3047 3050 3053 3059 3067 3072 3077 3082 3087 3092 3097 3102 3107
3061 3059 3056 3053 3048 3045 3039 3038 3036 3034 3034 3031 3028 3027 3024 3021 3018 3017 3016 3015 3015 3013 3012 3010 3009 3013 3018 3022 3021 3029 3038 3043 3047 3049 3050 3061 3064 3070 3074 3078 3084 3090 3094 3100 3104
3054 3053 3052 3049 3045 3042 3037 3038 3038 3036 3033 3029 3028 3024 3022 3019 3016 3014 3013 3014 3013 3012 3011 3010 3010 3010 3011 3019 3023 3031 3036 3044 3048 3050 3056 3054 3063 3068 3073 3077 3081 3087 3092 3097 3102
3048 3047 3046 3044 3042 3039 3036 3036 3035 3036 3032 3028 3025 3022 3019 3017 3016 3013 3013 3013 3011 3010 3009 3011 3010 3011 3013 3017 3023 3031 3038 3047 3052 3053 3056 3058 3061 3060 3068 3075 3078 3085 3090 3094 3099
3042 3041 3041 3039 3039 3036 3034 3034 3033 3034 3030 3028 3026 3024 3021 3019 3015 3012 3011 3010 3009 3009 3010 3012 3012 3012 3016 3019 3025 3031 3038 3044 3050 3055 3062 3064 3060 3057 3067 3073 3076 3082 3087 3091 3095
3035 3035 3036 3036 3036 3033 3033 3032 3031 3032 3031 3033 3029 3026 3023 3019 3017 3014 3010 3010 3010 3011 3011 3014 3014 3012 3017 3022 3028 3032 3039 3046 3048 3057 3059 3062 3065 3063 3065 3069 3073 3079 3083 3088 3089
3028 3030 3032 3031 3031 3031 3032 3031 3030 3031 3035 3035 3031 3028 3023 3021 3020 3017 3013 3012 3011 3014 3015 3016 3017 3015 3021 3026 3032 3035 3040 3042 3046 3056 3064 3067 3066 3063 3065 3067 3069 3076 3081 3084 3085
3020 3024 3028 3028 3027 3029 3029 3029 3031 3032 3032 3032 3031 3029 3025 3024 3022 3019 3016 3016 3014 3017 3018 3020 3021 3021 3025 3031 3035 3038 3044 3051 3057 3060 3067 3064 3069 3063 3067 3069 3071 3074 3078 3080 3082
3015 3019 3023 3024 3025 3025 3026 3029 3030 3027 3031 3033 3032 3028 3027 3026 3026 3023 3021 3021 3021 3022 3022 3027 3028 3030 3032 3034 3040 3045 3047 3055 3063 3065 3064 3062 3067 3061 3063 3065 3066 3068 3073 3076 3079
3009 3014 3017 3020 3021 3023 3024 3028 3027 3025 3027 3030 3031 3028 3029 3028 3029 3028 3026 3025 3027 3029 3029 3031 3037 3037 3038 3041 3043 3047 3047 3049 3057 3062 3062 3064 3063 3060 3059 3062 3065 3067 3068 3072 3075
3004 3010 3013 3015 3018 3020 3023 3025 3022 3023 3026 3029 3030 3030 3031 3030 3031 3030 3030 3030 3032 3033 3033 3035 3038 3040 3041 3044 3048 3048 3048 3057 3057 3059 3060 3065 3062 3061 3061 3063 3065 3066 3069 3072 3075
2999 3005 3010 3012 3015 3017 3020 3021 3021 3022 3026 3029 3030 3032 3031 3033 3033 3032 3033 3035 3035 3035 3035 3038 3041 3044 3045 3047 3050 3052 3057 3060 3058 3064 3063 3062 3062 3063 3062 3064 3066 3070 3073 3074 3074
2995 2999 3005 3007 3012 3015 3016 3019 3020 3023 3026 3029 3030 3033 3034 3034 3034 3035 3037 3038 3037 3037 3038 3039 3042 3049 3049 3050 3050 3052 3053 3054 3057 3062 3064 3067 3064 3063 3065 3066 3070 3073 3072 3072 3072
2990 2996 3000 3004 3010 3011 3014 3016 3019 3022 3025 3027 3031 3033 3035 3036 3037 3038 3039 3038 3039 3039 3040 3039 3042 3047 3050 3052 3054 3055 3058 3060 3061 3066 3065 3066 3068 3064 3065 3068 3070 3071 3068 3068 3068
2985 2993 2997 3001 3005 3008 3012 3015 3019 3022 3025 3027 3030 3033 3035 3037 3040 3040 3039 3039 3040 3041 3042 3043 3045 3049 3052 3056 3055 3056 3058 3059 3060 3061 3062 3065 3067 3066 3067 3068 3069 3069 3068 3067 3068
2986 2990 2995 2998 3001 3007 3010 3014 3018 3022 3025 3027 3030 3034 3035 3037 3039 3040 3041 3041 3041 3042 3043 3045 3046 3047 3049 3051 3054 3056 3057 3058 3060 3062 3063 3064 3065 3066 3066 3067 3067 3066 3066 3066 3067
2984 2987 2991 2991 2998 3004 3009 3014 3017 3020 3024 3027 3030 3033 3035 3038 3040 3041 3041 3041 3042 3043 3044 3046 3048 3049 3050 3051 3053 3054 3056 3057 3058 3060 3061 3061 3060 3063 3064 3064 3063 3062 3061 3060 3060
2983 2987 2989 2991 2999 3003 3008 3012 3018 3020 3024 3027 3030 3034 3037 3039 3040 3041 3042 3043 3044 3045 3046 3047 3049 3050 3050 3051 3052 3053 3054 3054 3055 3055 3055 3056 3055 3058 3058 3057 3057 3057 3056 3056 3056
2984 2987 2990 2992 2996 3002 3007 3012 3018 3022 3025 3029 3032 3034 3037 3040 3041 3042 3043 3044 3044 3047 3048 3049 3049 3050 3051 3052 3052 3053 3051 3052 3052 3053 3054 3053 3054 3052 3052 3050 3050 3050 3049 3047 3046